Content
SEND FEEDBACK

Daily
Averages
Monthly
Summary
United States of America

NEVADA CITY, CALIFORNIA


Home > North America > United States > California
Elevation: 2934 feet     Latitude: 39 18N     Longitude: 121 00W

WEATHER
 
SELECT A DAY
Number of Records: 67,209;   Date Range: 9/21/11 - 10/22/14
 
SHARE

PRINT THIS DATA

[ ← Previous Day ]
WEATHER ALMANAC - OCTOBER 8, 2013
[ Next Day → ]
[ °C ]   °F
We're sorry. There is no daily almanac available for Nevada City, California on October 8, 2013.
WEATHER BY HOUR - OCTOBER 8, 2013
[ °C ]   °F
Local TimeTemperatureDewpointHumidityBarometerVisibilityWind DirectionWind SpeedGust SpeedPrecipitationEventsConditions
12:35 AM59.0 °F23.0 °F25 %29.97 in10.0 miCalmClear
12:55 AM59.0 °F23.0 °F25 %29.97 in10.0 miCalmClear
1:15 AM59.0 °F23.0 °F25 %29.96 in10.0 miCalmClear
1:35 AM59.0 °F21.2 °F23 %29.96 in10.0 miCalmClear
1:55 AM59.0 °F19.4 °F22 %29.96 in10.0 miCalmClear
2:15 AM59.0 °F21.2 °F23 %29.96 in10.0 miCalmClear
2:35 AM59.0 °F21.2 °F23 %29.96 in10.0 miCalmClear
2:55 AM59.0 °F19.4 °F22 %29.95 in10.0 miCalmClear
3:15 AM59.0 °F19.4 °F22 %29.95 in10.0 miCalmClear
3:35 AM57.2 °F21.2 °F25 %29.95 in10.0 miCalmClear
3:55 AM57.2 °F19.4 °F23 %29.94 in10.0 miCalmClear
4:15 AM57.2 °F19.4 °F23 %29.94 in10.0 miCalmClear
4:35 AM57.2 °F17.6 °F21 %29.94 in10.0 miCalm
4:55 AM57.2 °F15.8 °F20 %29.94 in10.0 miCalm
5:15 AM55.4 °F17.6 °F23 %29.94 in10.0 miCalmClear
5:35 AM55.4 °F19.4 °F25 %29.94 in10.0 miCalmClear
5:55 AM57.2 °F17.6 °F21 %29.94 in10.0 miCalmClear
6:15 AM57.2 °F17.6 °F21 %29.93 in10.0 miCalmClear
6:35 AM57.2 °F19.4 °F23 %29.93 in10.0 miCalmClear
6:55 AM55.4 °F23.0 °F29 %29.94 in10.0 miCalmClear
7:15 AM55.4 °F23.0 °F29 %29.94 in10.0 miCalmClear
7:35 AM57.2 °F23.0 °F27 %29.93 in10.0 miCalmClear
7:55 AM57.2 °F23.0 °F27 %29.93 in10.0 miCalmClear
8:15 AM59.0 °F24.8 °F27 %29.93 in10.0 miCalmClear
8:35 AM62.6 °F28.4 °F27 %29.93 in10.0 miCalmClear
8:55 AM62.6 °F32.0 °F32 %29.94 in10.0 miCalmClear
9:15 AM62.6 °F28.4 °F27 %29.93 in10.0 miCalmClear
9:35 AM64.4 °F26.6 °F24 %29.93 in10.0 miCalmClear
9:55 AM66.2 °F28.4 °F24 %29.93 in10.0 miCalmClear
10:15 AM66.2 °F26.6 °F23 %29.93 in1.5 miWNW (290°)5.8 mphClear
10:35 AM66.2 °F26.6 °F23 %29.93 in10.0 miWNW (290°)4.6 mphClear
10:55 AM66.2 °F26.6 °F23 %29.92 in10.0 miWest (280°)6.9 mphClear
11:15 AM66.2 °F26.6 °F23 %29.91 in10.0 miWest (280°)5.8 mphMostly Cloudy
11:35 AM66.2 °F26.6 °F23 %29.91 in10.0 miWest (280°)8.1 mphMostly Cloudy
11:55 AM66.2 °F24.8 °F21 %29.90 in10.0 miWest (270°)9.2 mphClear
12:15 PM66.2 °F24.8 °F21 %29.90 in10.0 miWest (270°)8.1 mphPartly Cloudy
12:35 PM66.2 °F26.6 °F23 %29.90 in10.0 miWest (270°)8.1 mphPartly Cloudy
12:55 PM64.4 °F24.8 °F22 %29.90 in10.0 miWNW (290°)6.9 mphScattered Clouds
1:15 PM64.4 °F23.0 °F21 %29.89 in10.0 miWNW (300°)6.9 mphScattered Clouds
1:35 PM64.4 °F23.0 °F21 %29.88 in10.0 miWNW (300°)8.1 mphPartly Cloudy
1:55 PM64.4 °F21.2 °F19 %29.87 in10.0 miNW (310°)4.6 mphClear
2:15 PM66.2 °F21.2 °F18 %29.86 in10.0 miWNW (300°)6.9 mphScattered Clouds
2:35 PM66.2 °F23.0 °F19 %29.86 in10.0 miWest (260°)4.6 mphPartly Cloudy
2:55 PM66.2 °F24.8 °F21 %29.85 in10.0 miWest (270°)6.9 mphPartly Cloudy
3:15 PM66.2 °F23.0 °F19 %29.85 in10.0 miWest (260°)5.8 mphClear
3:35 PM66.2 °F23.0 °F19 %29.84 in10.0 miSSW (210°)4.6 mphClear
3:55 PM66.2 °F26.6 °F23 %29.84 in10.0 miWSW (250°)6.9 mphClear
4:15 PM66.2 °F24.8 °F21 %29.83 in10.0 miWest (260°)6.9 mphClear
4:35 PM66.2 °F26.6 °F23 %29.83 in10.0 miWest (280°)5.8 mphClear
4:55 PM64.4 °F26.6 °F24 %29.82 in10.0 miWest (260°)5.8 mphClear
5:15 PM64.4 °F26.6 °F24 %29.82 in10.0 miWest (270°)4.6 mphClear
5:35 PM64.4 °F28.4 °F26 %29.81 in10.0 miCalmClear
5:55 PM64.4 °F28.4 °F26 %29.80 in10.0 miCalmClear
6:15 PM62.6 °F30.2 °F30 %29.80 in10.0 miCalmClear
6:35 PM59.0 °F30.2 °F34 %29.80 in10.0 miCalmClear
6:55 PM59.0 °F32.0 °F36 %29.80 in10.0 miWest (270°)3.5 mphClear
7:15 PM57.2 °F32.0 °F38 %29.80 in10.0 miNW (320°)3.5 mphClear
7:35 PM57.2 °F32.0 °F38 %29.79 in10.0 miNW (320°)3.5 mphClear
7:55 PM57.2 °F32.0 °F38 %29.79 in10.0 miCalmClear
8:15 PM55.4 °F32.0 °F41 %29.78 in10.0 miCalmClear
8:35 PM55.4 °F32.0 °F41 %29.78 in10.0 miCalmClear
8:55 PM55.4 °F32.0 °F41 %29.78 in10.0 miCalmClear
9:15 PM53.6 °F32.0 °F44 %29.77 in10.0 miCalmClear
9:35 PM53.6 °F32.0 °F44 %29.77 in10.0 miCalmClear
9:55 PM55.4 °F32.0 °F41 %29.77 in10.0 miCalmClear
10:15 PM53.6 °F32.0 °F44 %29.76 in10.0 miCalmClear
10:35 PM55.4 °F32.0 °F41 %29.75 in10.0 miESE (110°)6.9 mphClear
10:55 PM55.4 °F32.0 °F41 %29.74 in10.0 miESE (110°)5.8 mphClear
11:15 PM53.6 °F32.0 °F44 %29.74 in10.0 miESE (110°)4.6 mphClear
11:35 PM53.6 °F32.0 °F44 %29.72 in10.0 miESE (110°)5.8 mphClear
11:55 PM53.6 °F32.0 °F44 %29.72 in10.0 miESE (110°)3.5 mphClear
Hourly data recorded from KGOO, located miles away from Nevada City, California







STORIES FROM OUR PARTNERS